Weather History for King Salmon, AK

Change the Weather History Date:

Friday, July 5, 2013

  Actual Average Record
Temperature  
Mean Temperature 45 °F 55 °F  
Max Temperature 58 °F 64 °F 80 °F (1949)
Min Temperature 31 °F 47 °F 31 °F (2013)
Degree Days  
Heating Degree Days 20 10  
Month to date heating degree days 87 51  
Since 1 June heating degree days 369 458  
Since 1 July heating degree days 87 51  
Cooling Degree Days 0    
Month to date cooling degree days 0  
Year to date cooling degree days 0  
Since 1 June cooling degree days 0  
Moisture  
Dew Point 42 °F    
Average Humidity 0    
Maximum Humidity 0    
Minimum Humidity 0    
Precipitation  
Precipitation 0.02 in 0.06 in 0.67 in (1979)
Month to date precipitation 0.52 0.31  
Year to date precipitation 7.93 6.66  
Snow  
Snow 0.00 in 0.00 in 0.00 in (2014)
Month to date snowfall 0.0 0.0  
Since 1 June snowfall 0.0 0.0  
Since 1 July snowfall 0.0 0.0  
Snow Depth 0.00 in    
Sea Level Pressure  
Sea Level Pressure 29.96 in    
Wind  
Wind Speed 6 mph (South)    
Max Wind Speed 20 mph    
Max Gust Speed 25 mph    
Visibility 6 miles    
Events Fog , Rain    
T = Trace of Precipitation, MM = Missing Value Source: NWS Daily Summary

Daily Weather History Graph

Daily Weather History Graph

Search for Another Location

Airport:

Trip Planner

Search our weather history database for the weather conditions in past years. The results will help you decide how hot, cold, wet, or windy it might be!

Date:

Astronomy

Jul. 05, 2013 Rise Set
Actual Time 5:27 AM AKDT 11:34 PM AKDT
Civil Twilight 4:10 AM AKDT 12:50 AM AKDT
Nautical Twilight Sun does not rise Sun does not rise
Astronomical Twilight Sun does not rise Sun does not rise
Moon 3:53 AM AKDT (7/5) 9:21 PM AKDT (7/5)
Length of Visible Light 20h 39m
Length of Day
18h 07m
Waning Crescent, 5% of the Moon is Illuminated
Jul 5
Waning Crescent
Jul 7
New
Jul 15
First Quarter
Jul 22
Full
Jul 29
Last Quarter

Hourly Weather History & Observations

Time (AKDT) Temp. Windchill Dew Point Humidity Pressure Visibility Wind Dir Wind Speed Gust Speed Precip Events Conditions
12:54 AM 37.0 °F - 36.0 °F 96% 30.02 in 10.0 mi Calm Calm - N/A   Partly Cloudy
1:54 AM 36.0 °F - 36.0 °F 100% 30.03 in 10.0 mi Calm Calm - N/A   Partly Cloudy
2:10 AM 33.8 °F 30.8 °F 33.8 °F 100% 30.03 in 7.0 mi East 3.5 mph - N/A   Scattered Clouds
2:45 AM 35.6 °F - 35.6 °F 100% 30.03 in 1.5 mi Calm Calm - N/A   Scattered Clouds
2:54 AM 35.1 °F - 35.1 °F 100% 30.03 in 0.8 mi Calm Calm - N/A   Scattered Clouds
3:01 AM 35.6 °F - 35.6 °F 100% 30.03 in 0.8 mi Calm Calm - N/A   Mist
3:09 AM 35.6 °F - 35.6 °F 100% 30.03 in 1.2 mi Calm Calm - N/A   Scattered Clouds
3:13 AM 35.6 °F - 35.6 °F 100% 30.03 in 3.0 mi Calm Calm - N/A   Scattered Clouds
3:24 AM 32.0 °F 28.7 °F 32.0 °F 100% 30.02 in 1.5 mi NNE 3.5 mph - N/A   Scattered Clouds
3:35 AM 32.0 °F 28.7 °F 32.0 °F 100% 30.03 in 0.8 mi ENE 3.5 mph - N/A   Scattered Clouds
3:54 AM 33.1 °F - 33.1 °F 100% 30.03 in 1.0 mi Calm Calm - N/A   Scattered Clouds
4:06 AM 33.8 °F - 33.8 °F 100% 30.02 in 0.5 mi Calm Calm - N/A Fog Fog
4:44 AM 30.2 °F 26.7 °F 30.2 °F 100% 30.01 in 0.2 mi ENE 3.5 mph - N/A Fog Light Freezing Fog
4:54 AM 32.0 °F 28.7 °F 32.0 °F 100% 30.01 in 0.5 mi NE 3.5 mph - N/A Fog Fog
5:07 AM 32.0 °F 28.7 °F 30.2 °F 93% 30.01 in 0.2 mi ENE 3.5 mph - N/A Fog Fog
5:35 AM 30.2 °F 24.3 °F 30.2 °F 100% 30.00 in 0.5 mi ENE 5.8 mph - N/A Fog Light Freezing Fog
5:54 AM 32.0 °F - 32.0 °F 100% 29.99 in 0.5 mi Calm Calm - N/A Fog Fog
6:18 AM 32.0 °F - 32.0 °F 100% 29.99 in 0.2 mi Calm Calm - N/A Fog Fog
6:43 AM 32.0 °F - 32.0 °F 100% 29.98 in 1.2 mi Calm Calm - N/A   Scattered Clouds
6:45 AM 32.0 °F - 32.0 °F 100% 29.98 in 3.0 mi Calm Calm - N/A   Scattered Clouds
6:52 AM 33.8 °F 30.8 °F 33.8 °F 100% 29.98 in 1.8 mi NE 3.5 mph - N/A   Scattered Clouds
6:54 AM 33.1 °F - 33.1 °F 100% 29.98 in 1.5 mi Calm Calm - N/A   Scattered Clouds
7:00 AM 33.8 °F 30.8 °F 33.8 °F 100% 29.98 in 3.0 mi North 3.5 mph - N/A   Mostly Cloudy
7:54 AM 39.9 °F - 39.9 °F 100% 29.97 in 10.0 mi Calm Calm - N/A   Mostly Cloudy
8:54 AM 46.9 °F - 46.0 °F 97% 29.97 in 10.0 mi Calm Calm - N/A   Mostly Cloudy
9:54 AM 51.1 °F - 46.9 °F 86% 29.96 in 10.0 mi Calm Calm - N/A   Mostly Cloudy
10:16 AM 51.8 °F - 46.4 °F 82% 29.96 in 10.0 mi SW 3.5 mph - N/A   Overcast
10:38 AM 51.8 °F - 46.4 °F 82% 29.96 in 10.0 mi SW 3.5 mph - N/A   Overcast
10:54 AM 51.1 °F - 46.9 °F 86% 29.96 in 10.0 mi Calm Calm - N/A   Overcast
11:54 AM 51.1 °F - 48.0 °F 89% 29.95 in 10.0 mi SW 3.5 mph - 0.00 in Rain Light Rain
12:54 PM 51.1 °F - 48.9 °F 92% 29.94 in 8.0 mi WSW 5.8 mph - 0.01 in Rain Light Rain
1:17 PM 51.8 °F - 48.2 °F 88% 29.94 in 6.0 mi SW 3.5 mph - 0.00 in Rain Light Rain
1:54 PM 51.1 °F - 50.0 °F 96% 29.94 in 10.0 mi South 3.5 mph - 0.00 in   Overcast
2:54 PM 53.1 °F - 48.9 °F 86% 29.93 in 10.0 mi SE 3.5 mph - 0.00 in   Overcast
3:14 PM 53.6 °F - 50.0 °F 88% 29.93 in 4.0 mi SSE 8.1 mph - 0.00 in Rain Light Rain
3:27 PM 53.6 °F - 51.8 °F 94% 29.92 in 2.5 mi South 5.8 mph - 0.00 in Rain Light Rain
3:38 PM 53.6 °F - 51.8 °F 94% 29.92 in 3.0 mi South 5.8 mph - 0.01 in Rain Light Rain
3:49 PM 53.6 °F - 51.8 °F 94% 29.92 in 10.0 mi SSW 4.6 mph - 0.01 in   Overcast
3:54 PM 53.1 °F - 51.1 °F 93% 29.92 in 10.0 mi SSW 4.6 mph - 0.01 in   Overcast
3:59 PM 53.6 °F - 51.8 °F 94% 29.92 in 10.0 mi SSW 5.8 mph - N/A   Overcast
4:37 PM 53.6 °F - 51.8 °F 94% 29.91 in 10.0 mi South 4.6 mph - N/A   Overcast
4:45 PM 53.6 °F - 51.8 °F 94% 29.91 in 10.0 mi South 8.1 mph - N/A   Overcast
4:54 PM 54.0 °F - 51.1 °F 90% 29.91 in 10.0 mi South 5.8 mph - N/A   Overcast
5:54 PM 55.0 °F - 48.9 °F 80% 29.89 in 10.0 mi South 12.7 mph - N/A   Overcast
6:54 PM 57.0 °F - 48.0 °F 72% 29.88 in 10.0 mi South 17.3 mph 24.2 mph N/A   Mostly Cloudy
7:54 PM 55.9 °F - 48.0 °F 75% 29.87 in 10.0 mi South 15.0 mph - N/A   Mostly Cloudy
8:54 PM 55.0 °F - 46.9 °F 74% 29.88 in 10.0 mi South 9.2 mph - N/A   Overcast
9:54 PM 54.0 °F - 46.9 °F 77% 29.87 in 10.0 mi South 11.5 mph - N/A   Mostly Cloudy
10:54 PM 52.0 °F - 46.0 °F 80% 29.88 in 10.0 mi South 11.5 mph - N/A   Overcast
11:54 PM 52.0 °F - 46.0 °F 80% 29.88 in 10.0 mi South 15.0 mph - N/A   Overcast